| time (UTC) | temp C | wind direction | speed KPH | gust KPH | rain 1hr cm | rain 24hr cm | rain mn cm | humidity % | barometer mb |
| 20260506192348 | 17 | 220 | 3.2 | 17.7 | 0.03 | 0.18 | 0.18 | 84 | 1007.7 |
| 20260506191328 | 17 | 220 | 4.8 | 17.7 | 0.03 | 0.18 | 0.18 | 83 | 1007.8 |
| 20260506190257 | 17 | 220 | 4.8 | 17.7 | 0.00 | 0.13 | 0.13 | 83 | 1007.8 |
| 20260506185237 | 17 | 210 | 3.2 | 17.7 | 0.03 | 0.13 | 0.13 | 83 | 1007.7 |
| 20260506184220 | 17 | 210 | 4.8 | 17.7 | 0.03 | 0.13 | 0.13 | 83 | 1007.7 |
| 20260506183204 | 17 | 210 | 3.2 | 17.7 | 0.03 | 0.13 | 0.13 | 83 | 1007.7 |
| 20260506182147 | 17 | 212 | 4.8 | 16.1 | 0.03 | 0.13 | 0.13 | 83 | 1007.9 |
| 20260506181130 | 17 | 210 | 3.2 | 17.7 | 0.03 | 0.13 | 0.13 | 83 | 1008.0 |
| 20260506180113 | 18 | 159 | 4.8 | 16.1 | 0.03 | 0.13 | 0.13 | 82 | 1008.0 |
| 20260506175306 | 18 | 192 | 4.8 | 0.0 | 0.00 | 0.10 | 0.10 | 81 | 1008.1 |
| 20260506174030 | 18 | 194 | 4.8 | 14.5 | 0.00 | 0.10 | 0.10 | 81 | 1008.1 |
| 20260506173012 | 18 | 192 | 3.2 | 0.0 | 0.03 | 0.10 | 0.10 | 83 | 1008.0 |
| 20260506171953 | 18 | 190 | 1.6 | 0.0 | 0.05 | 0.10 | 0.10 | 84 | 1008.0 |
| 20260506170937 | 18 | 190 | 3.2 | 0.0 | 0.05 | 0.10 | 0.10 | 85 | 1008.2 |
| 20260506165915 | 18 | 216 | 1.6 | 0.0 | 0.05 | 0.10 | 0.10 | 85 | 1008.5 |
| 20260506164855 | 17 | 216 | 1.6 | 0.0 | 0.08 | 0.10 | 0.10 | 84 | 1008.6 |
| 20260506163839 | 17 | 218 | 1.6 | 0.0 | 0.10 | 0.10 | 0.10 | 84 | 1009.0 |
| 20260506162756 | 17 | 216 | 1.6 | 0.0 | 0.08 | 0.08 | 0.08 | 82 | 1009.3 |
| 20260506161956 | 17 | 216 | 1.6 | 0.0 | 0.05 | 0.05 | 0.05 | 81 | 1009.4 |
| 20260506160723 | 18 | 220 | 1.6 | 11.3 | 0.05 | 0.05 | 0.05 | 79 | 1009.6 |
| 20260506155706 | 18 | 220 | 3.2 | 14.5 | 0.05 | 0.05 | 0.05 | 77 | 1009.6 |
| 20260506154649 | 19 | 220 | 3.2 | 16.1 | 0.03 | 0.03 | 0.03 | 75 | 1009.6 |
| 20260506153633 | 20 | 216 | 3.2 | 17.7 | 0.00 | 0.00 | 0.00 | 72 | 1009.4 |
| 20260506152616 | 20 | 218 | 3.2 | 16.1 | 0.00 | 0.00 | 0.00 | 71 | 1009.5 |
| 20260506151559 | 20 | 220 | 3.2 | 17.7 | 0.00 | 0.00 | 0.00 | 71 | 1009.5 |
| 20260506150541 | 20 | 220 | 4.8 | 17.7 | 0.00 | 0.00 | 0.00 | 69 | 1009.5 |
| 20260506145524 | 20 | 208 | 4.8 | 0.0 | 0.00 | 0.00 | 0.00 | 68 | 1009.7 |
| 20260506144508 | 20 | 198 | 4.8 | 0.0 | 0.00 | 0.00 | 0.00 | 67 | 1009.7 |
| 20260506143450 | 20 | 174 | 4.8 | 0.0 | 0.00 | 0.00 | 0.00 | 66 | 1009.7 |
| 20260506142432 | 20 | 182 | 4.8 | 0.0 | 0.00 | 0.00 | 0.00 | 67 | 1009.6 |
| 20260506141415 | 20 | 233 | 4.8 | 0.0 | 0.00 | 0.00 | 0.00 | 67 | 1009.6 |
| 20260506140356 | 20 | 178 | 4.8 | 19.3 | 0.00 | 0.00 | 0.00 | 68 | 1009.5 |
| 20260506135338 | 20 | 210 | 4.8 | 17.7 | 0.00 | 0.00 | 0.00 | 68 | 1009.6 |
| 20260506134321 | 20 | 183 | 6.4 | 17.7 | 0.00 | 0.00 | 0.00 | 68 | 1009.6 |
| 20260506133212 | 20 | 189 | 4.8 | 0.0 | 0.00 | 0.00 | 0.00 | 68 | 1009.7 |
| 20260506132155 | 20 | 203 | 6.4 | 0.0 | 0.00 | 0.00 | 0.00 | 68 | 1009.8 |
| 20260506131138 | 20 | 210 | 4.8 | 19.3 | 0.00 | 0.00 | 0.00 | 69 | 1009.8 |
| 20260506130120 | 19 | 167 | 4.8 | 17.7 | 0.00 | 0.00 | 0.00 | 70 | 1009.7 |
| 20260506125037 | 19 | 270 | 4.8 | 12.9 | 0.00 | 0.00 | 0.00 | 70 | 1009.7 |
| 20260506124013 | 19 | 200 | 4.8 | 17.7 | 0.00 | 0.00 | 0.00 | 72 | 1009.6 |
| 20260506122957 | 18 | 200 | 4.8 | 17.7 | 0.00 | 0.00 | 0.00 | 72 | 1009.7 |
| 20260506122153 | 18 | 200 | 4.8 | 17.7 | 0.00 | 0.00 | 0.00 | 73 | 1009.8 |
| 20260506120923 | 18 | 200 | 3.2 | 16.1 | 0.00 | 0.00 | 0.00 | 73 | 1009.8 |
| 20260506115905 | 18 | 248 | 3.2 | 12.9 | 0.00 | 0.00 | 0.00 | 73 | 1009.9 |
| 20260506115102 | 18 | 248 | 4.8 | 12.9 | 0.00 | 0.00 | 0.00 | 73 | 1009.9 |
| 20260506113833 | 18 | 248 | 4.8 | 12.9 | 0.00 | 0.00 | 0.00 | 74 | 1010.0 |
| 20260506113029 | 18 | 198 | 4.8 | 17.7 | 0.00 | 0.00 | 0.00 | 76 | 1009.9 |
| 20260506111756 | 17 | 200 | 4.8 | 17.7 | 0.00 | 0.00 | 0.00 | 76 | 1009.9 |
| 20260506110740 | 17 | 200 | 3.2 | 16.1 | 0.00 | 0.00 | 0.00 | 77 | 1009.8 |
| 20260506105723 | 17 | 200 | 3.2 | 14.5 | 0.00 | 0.00 | 0.00 | 77 | 1009.8 |
| 20260506104706 | 17 | 200 | 3.2 | 14.5 | 0.00 | 0.00 | 0.00 | 78 | 1009.8 |
| 20260506103649 | 17 | 198 | 3.2 | 12.9 | 0.00 | 0.00 | 0.00 | 78 | 1009.7 |
| 20260506102632 | 17 | 200 | 3.2 | 0.0 | 0.00 | 0.00 | 0.00 | 78 | 1009.7 |
| 20260506101614 | 17 | 198 | 3.2 | 0.0 | 0.00 | 0.00 | 0.00 | 79 | 1009.7 |
| 20260506100552 | 17 | 198 | 3.2 | 0.0 | 0.00 | 0.00 | 0.00 | 78 | 1009.6 |
| 20260506095722 | 17 | 190 | 3.2 | 0.0 | 0.00 | 0.00 | 0.00 | 78 | 1009.6 |
| 20260506094441 | 17 | 190 | 3.2 | 0.0 | 0.00 | 0.00 | 0.00 | 78 | 1009.5 |
| 20260506093424 | 17 | 190 | 3.2 | 0.0 | 0.00 | 0.00 | 0.00 | 79 | 1009.5 |
| 20260506092407 | 17 | 190 | 3.2 | 0.0 | 0.00 | 0.00 | 0.00 | 78 | 1009.6 |
| 20260506091351 | 17 | 190 | 3.2 | 0.0 | 0.00 | 0.00 | 0.00 | 78 | 1009.7 |
| 20260506090307 | 17 | 190 | 3.2 | 0.0 | 0.00 | 0.00 | 0.00 | 78 | 1009.7 |
| 20260506085506 | 17 | 188 | 3.2 | 0.0 | 0.00 | 0.00 | 0.00 | 78 | 1009.8 |
| 20260506084234 | 17 | 188 | 3.2 | 0.0 | 0.00 | 0.00 | 0.00 | 78 | 1009.8 |
| 20260506083213 | 17 | 190 | 3.2 | 0.0 | 0.00 | 0.00 | 0.00 | 78 | 1009.8 |
| 20260506082157 | 17 | 190 | 3.2 | 12.9 | 0.00 | 0.00 | 0.00 | 77 | 1009.9 |
| 20260506081140 | 17 | 190 | 3.2 | 0.0 | 0.00 | 0.00 | 0.00 | 77 | 1009.9 |
| 20260506080118 | 17 | 169 | 3.2 | 0.0 | 0.00 | 0.00 | 0.00 | 77 | 1009.8 |
| 20260506073021 | 18 | 188 | 3.2 | 0.0 | 0.00 | 0.00 | 0.00 | 76 | 1009.9 |
| 20260506072220 | 18 | 190 | 3.2 | 0.0 | 0.00 | 0.00 | 0.00 | 75 | 1009.9 |
| 20260506070947 | 18 | 190 | 3.2 | 0.0 | 0.00 | 0.00 | 0.00 | 75 | 1010.0 |
| 20260506061822 | 18 | 198 | 1.6 | 12.9 | 0.00 | 0.00 | 0.00 | 72 | 1010.2 |
| 20260506060954 | 18 | 198 | 3.2 | 12.9 | 0.00 | 0.00 | 0.00 | 71 | 1010.2 |
| 20260506050552 | 19 | 190 | 3.2 | 12.9 | 0.00 | 0.00 | 0.00 | 69 | 1010.7 |
| 20260506044515 | 19 | 192 | 1.6 | 14.5 | 0.00 | 0.00 | 0.00 | 67 | 1010.7 |
| 20260506043458 | 19 | 190 | 1.6 | 12.9 | 0.00 | 0.00 | 0.00 | 67 | 1010.7 |
| 20260506042416 | 20 | 190 | 3.2 | 12.9 | 0.00 | 0.00 | 0.00 | 66 | 1010.7 |
| 20260506041359 | 20 | 190 | 1.6 | 14.5 | 0.00 | 0.00 | 0.00 | 66 | 1010.7 |
| 20260506040336 | 20 | 188 | 3.2 | 14.5 | 0.00 | 0.00 | 0.00 | 65 | 1010.6 |
| 20260506035319 | 20 | 190 | 3.2 | 12.9 | 0.00 | 0.00 | 0.00 | 64 | 1010.6 |
| 20260506034301 | 20 | 192 | 3.2 | 0.0 | 0.00 | 0.00 | 0.00 | 64 | 1010.6 |
| 20260506033245 | 20 | 192 | 1.6 | 0.0 | 0.00 | 0.00 | 0.00 | 64 | 1010.6 |
| 20260506032203 | 20 | 190 | 3.2 | 0.0 | 0.00 | 0.00 | 0.00 | 63 | 1010.6 |
| 20260506031146 | 20 | 190 | 3.2 | 0.0 | 0.00 | 0.00 | 0.00 | 62 | 1010.6 |
| 20260506030129 | 20 | 190 | 3.2 | 11.3 | 0.00 | 0.00 | 0.00 | 62 | 1010.6 |
| 20260506025113 | 20 | 190 | 3.2 | 14.5 | 0.00 | 0.00 | 0.00 | 61 | 1010.6 |
| 20260506024311 | 20 | 190 | 3.2 | 14.5 | 0.00 | 0.00 | 0.00 | 60 | 1010.6 |
| 20260506023033 | 20 | 190 | 3.2 | 14.5 | 0.00 | 0.00 | 0.00 | 60 | 1010.6 |
| 20260506022230 | 21 | 190 | 3.2 | 14.5 | 0.00 | 0.00 | 0.00 | 59 | 1010.6 |
| 20260506020959 | 21 | 188 | 3.2 | 14.5 | 0.00 | 0.00 | 0.00 | 58 | 1010.6 |
| 20260506020129 | 21 | 196 | 3.2 | 16.1 | 0.00 | 0.00 | 0.00 | 58 | 1010.5 |
| 20260506014859 | 21 | 196 | 3.2 | 16.1 | 0.00 | 0.00 | 0.00 | 57 | 1010.4 |
| 20260506013839 | 21 | 196 | 3.2 | 17.7 | 0.00 | 0.00 | 0.00 | 56 | 1010.3 |
| 20260506012822 | 22 | 196 | 3.2 | 17.7 | 0.00 | 0.00 | 0.00 | 54 | 1010.2 |
| 20260506011805 | 22 | 196 | 3.2 | 17.7 | 0.00 | 0.00 | 0.00 | 54 | 1010.1 |
| 20260506010749 | 22 | 196 | 3.2 | 16.1 | 0.00 | 0.00 | 0.00 | 52 | 1010.0 |
| 20260506005732 | 22 | 200 | 4.8 | 17.7 | 0.00 | 0.00 | 0.00 | 50 | 1009.8 |
| 20260506004714 | 23 | 200 | 4.8 | 17.7 | 0.00 | 0.00 | 0.00 | 49 | 1009.7 |
| 20260506003657 | 23 | 200 | 4.8 | 16.1 | 0.00 | 0.00 | 0.00 | 47 | 1009.6 |
| 20260506002640 | 23 | 198 | 3.2 | 17.7 | 0.00 | 0.00 | 0.00 | 45 | 1009.4 |
| 20260506001623 | 23 | 198 | 4.8 | 16.1 | 0.00 | 0.00 | 0.00 | 44 | 1009.4 |
| 20260506000606 | 24 | 200 | 3.2 | 17.7 | 0.00 | 0.00 | 0.00 | 43 | 1009.2 |
| 20260505235549 | 24 | 244 | 4.8 | 12.9 | 0.00 | 0.00 | 0.00 | 42 | 1009.2 |
| 20260505234532 | 25 | 210 | 4.8 | 19.3 | 0.00 | 0.00 | 0.00 | 41 | 1009.1 |
| 20260505233515 | 25 | 210 | 4.8 | 20.9 | 0.00 | 0.00 | 0.00 | 41 | 1009.0 |
| 20260505232457 | 25 | 210 | 4.8 | 20.9 | 0.00 | 0.00 | 0.00 | 40 | 1008.9 |
| 20260505231414 | 26 | 210 | 4.8 | 22.5 | 0.00 | 0.00 | 0.00 | 38 | 1008.7 |
| 20260505230356 | 26 | 210 | 4.8 | 22.5 | 0.00 | 0.00 | 0.00 | 37 | 1008.7 |
| 20260505225337 | 26 | 230 | 4.8 | 22.5 | 0.00 | 0.00 | 0.00 | 36 | 1008.6 |
| 20260505224321 | 26 | 228 | 6.4 | 20.9 | 0.00 | 0.00 | 0.00 | 34 | 1008.5 |
| 20260505223304 | 26 | 226 | 6.4 | 20.9 | 0.00 | 0.00 | 0.00 | 34 | 1008.5 |
| 20260505222245 | 26 | 228 | 6.4 | 20.9 | 0.00 | 0.00 | 0.00 | 33 | 1008.5 |
| 20260505221228 | 27 | 232 | 6.4 | 20.9 | 0.00 | 0.00 | 0.00 | 33 | 1008.3 |
| 20260505220211 | 27 | 270 | 6.4 | 19.3 | 0.00 | 0.00 | 0.00 | 32 | 1008.3 |
| 20260505215155 | 27 | 220 | 8.0 | 25.7 | 0.00 | 0.00 | 0.00 | 31 | 1008.2 |
| 20260505214138 | 27 | 220 | 8.0 | 25.7 | 0.00 | 0.00 | 0.00 | 31 | 1008.2 |
| 20260505213336 | 27 | 220 | 8.0 | 25.7 | 0.00 | 0.00 | 0.00 | 31 | 1008.2 |
| 20260505212102 | 27 | 205 | 9.7 | 24.1 | 0.00 | 0.00 | 0.00 | 30 | 1008.1 |
| 20260505211044 | 28 | 239 | 8.0 | 27.4 | 0.00 | 0.00 | 0.00 | 30 | 1008.0 |
| 20260505210027 | 28 | 240 | 8.0 | 27.4 | 0.00 | 0.00 | 0.00 | 30 | 1007.9 |
| 20260505205222 | 28 | 210 | 8.0 | 29.0 | 0.00 | 0.00 | 0.00 | 32 | 1007.9 |
| 20260505203952 | 27 | 212 | 6.4 | 29.0 | 0.00 | 0.00 | 0.00 | 32 | 1007.9 |
| 20260505203149 | 28 | 212 | 8.0 | 27.4 | 0.00 | 0.00 | 0.00 | 33 | 1008.0 |
| 20260505201919 | 27 | 210 | 8.0 | 27.4 | 0.00 | 0.00 | 0.00 | 32 | 1008.0 |
| 20260505200903 | 27 | 210 | 6.4 | 29.0 | 0.00 | 0.00 | 0.00 | 33 | 1008.1 |
| 20260505195844 | 28 | 220 | 8.0 | 27.4 | 0.00 | 0.00 | 0.00 | 33 | 1008.2 |
| 20260505194826 | 27 | 220 | 8.0 | 27.4 | 0.00 | 0.00 | 0.00 | 33 | 1008.2 |
| 20260505193809 | 27 | 220 | 8.0 | 25.7 | 0.00 | 0.00 | 0.00 | 33 | 1008.3 |